Regional Weather Roundup
Issued by NWS

Home | Current Version | Previous Version | Graphics & Text | Print | Product List | Glossary On
Versions: 1 2 3 4 5 6 7 8 9 10 11 12 13 14 15 16 17 18 19 20 21 22 23 24 25 26 27 28 29
000
ASUS45 KGTF 050710
RWRMT
MONTANA HOURLY WEATHER ROUNDUP
NATIONAL WEATHER SERVICE GREAT FALLS MT
100 AM MDT TUE MAY 05 2015

NOTE: "FAIR" INDICATES FEW OR NO CLOUDS BELOW 12000 FEET WITH NO
SIGNIFICANT WEATHER AND/OR OBSTRUCTIONS TO VISIBILITY.

MTZ001>007-043-050800-
WEST OF THE DIVIDE

CITY           SKY/WX    TMP DP  RH WIND       PRES   REMARKS
KALISPELL      MOSUNNY   43  33  68 CALM      29.77R
MISSOULA       MOCLDY    60  35  39 NW16      29.82R
BUTTE          PTCLDY    47  28  47 VRB5      29.89R
DEER LODGE       N/A     46  30  53 CALM      29.88R
EUREKA           N/A     45  28  53 SE8       29.77R
HAMILTON         N/A     54  36  50 S9        29.79S
LIBBY            N/A     45  30  57 CALM      29.78R
$$

MTZ008-052>055-050800-
SOUTHWEST MONTANA

CITY           SKY/WX    TMP DP  RH WIND       PRES   REMARKS
BOZEMAN        MOCLDY    52  36  54 W9        29.84S
DILLON         CLOUDY    55  32  41 SW9       29.86S
$$

MTZ009-010-012-014-046-048-049-054-050800-
EAST SLOPES AND CENTRAL MONTANA

CITY           SKY/WX    TMP DP  RH WIND       PRES   REMARKS
CUT BANK       CLEAR     42  23  46 W5        29.78F
GREAT FALLS    PTCLDY    50  27  40 SW12      29.79S
MALMSTROM AFB  PTCLDY    52  24  34 W3        29.79R
HELENA         CLEAR     55  29  36 E6        29.81S
$$

MTZ011-013-016-021-045-047-050-051-050800-
NORTH CENTRAL MONTANA

CITY           SKY/WX    TMP DP  RH WIND       PRES   REMARKS
HAVRE          CLEAR     55  39  54 CALM      29.74F
LEWISTOWN      CLEAR     50  39  66 E6        29.84F
CHINOOK          N/A     61  43  51 E8        29.76S
FORT BENTON      N/A     50  37  62 W6        29.77R
$$

MTZ017>020-022>042-056>058-061-062-050800-
EASTERN PLAINS

CITY           SKY/WX    TMP DP  RH WIND       PRES   REMARKS
BAKER          CLEAR     46  32  58 SE17      30.00F
BILLINGS       PTCLDY    55  39  54 CALM      29.85S
GLASGOW        CLEAR     50  35  56 E12       29.87S
JORDAN           N/A     52  38  58 SE15      29.85F
LIVINGSTON     PTCLDY    46  37  71 SW5       29.87S
MILES CITY     CLEAR     53  37  54 SE17      29.91F
SIDNEY         CLEAR     46  30  53 S6        30.00S
WOLF POINT     CLEAR     53  35  50 SE7       29.92F
BIG TIMBER       N/A     52  39  62 CALM      29.87F
FORSYTH          N/A     55  39  54 E6        29.87F
PLENTYWOOD       N/A     48  34  57 SE13      29.97F
POPLAR           N/A     50  34  53 E12       29.93F
$$

REGIONAL REPORTS...DAKOTAS

CITY           SKY/WX    TMP DP  RH WIND       PRES   REMARKS
WILLISTON      CLEAR     53  30  41 S10G20    30.00F
MINOT          CLOUDY    54  32  43 SE7       30.08F
DICKINSON      CLEAR     43  29  57 S10       30.04S
BEACH          FAIR      45  28  53 SE17G23   30.01F
CROSBY         FAIR      50  32  50 S15G24    30.01S
WATFORD CITY   FAIR      52  27  37 SE14      30.01F
BISMARCK       CLOUDY    53  31  42 SE3       30.12S
GRAND FORKS    CLEAR     45  26  47 SE6       30.17S
FARGO          CLEAR     50  27  40 SE6       30.19R
BUFFALO SD       N/A     45  29  53 SE14      29.98F
RAPID CITY     MOCLDY    46  36  68 S6        30.07F
$$

REGIONAL REPORTS...WYOMING/IDAHO/WASHINGTON

CITY           SKY/WX    TMP DP  RH WIND       PRES   REMARKS
GILLETTE       PTCLDY    47  33  58 S21       29.98F
SHERIDAN       PTCLDY    50  41  71 S13       29.89F
BUFFALO WY     MOCLDY    48  41  76 SE24G30   29.95F
CODY           PTCLDY    50  41  71 S7        29.91F
YELLOWSTONE LA   N/A     32  28  85 CALM      30.07S
IDAHO FALLS    CLOUDY    59  40  49 CALM      29.90F
SALMON           N/A     52  34  50 CALM      29.82S
BOISE          MOCLDY    67  37  33 W9        29.77R
SPOKANE        PTCLDY    55  35  47 SW15      29.80R
$$

REGIONAL REPORTS...ALBERTA

CITY           SKY/WX    TMP DP  RH WIND       PRES   REMARKS
EDMONTON       CLEAR     46  30  53 E21       29.79F
CALGARY        CLEAR     45  25  45 S3        29.69F
LETHBRIDGE     CLEAR     41  27  56 VRB3      29.72S
MEDICINE HAT   CLEAR     43  34  70 SW6       29.71F
$$

REGIONAL REPORTS...SASKATCHEWAN

CITY           SKY/WX    TMP DP  RH WIND       PRES   REMARKS
SWIFT CURRENT  PTCLDY    55  45  67 S15       29.79F
REGINA         MOCLDY    54  39  58 SE21G31   29.91F
SASKATOON      PTCLDY    48  34  57 E15       29.89F
$$



USA.gov is the U.S. government's official web portal to all federal, state and local government web resources and services.